Weather Service Report


956 
ASUS45 KSLC 221410
RWRUT 

UTAH REGIONAL WEATHER ROUNDUP
NATIONAL WEATHER SERVICE SALT LAKE CITY UT
700 AM MST FRI FEB 22 2019

UTZ001>011-023>025-221500-

NORTHERN UTAH
  
CITY           SKY/WX    TMP DP  RH WIND       PRES   REMARKS
BRIGHAM CITY   PTCLDY    20  10  64 NW8       29.88R WCI  11          
HILL AFB       NOT AVBL                                               
LOGAN          CLOUDY    14   8  77 CALM      29.88R                  
OGDEN          MOCLDY    21   9  59 SW8       29.83R WCI  11          
SALT LAKE CITY PTCLDY    21  18  88 CALM      29.86R                  
TOOELE VALLEY  FLURRIES  23  19  86 W9        29.87R WCI  13          
WENDOVER       CLEAR     22   8  55 NW14G22   29.90R WCI   9          
HEBER CITY       N/A      9   3  78 NE3       29.79R                  
WEST JORDAN    PTCLDY    21  13  71 N6        29.85R WCI  13          

$$

UTZ011>015-024>027-221500-

CENTRAL/NORTHEAST UTAH
  
CITY           SKY/WX    TMP DP  RH WIND       PRES   REMARKS
PROVO AIRPORT  FLURRIES  23  15  71 N10       29.86R WCI  12          
MOAB/CANYONLAN CLOUDY    22  21  96 CALM      29.71S                  
DELTA          CLOUDY    19  18  93 N10       29.85R WCI   8          
PRICE          CLOUDY    23  23 100 N5        29.71R WCI  17          
RICHFIELD      CLOUDY    19  14  79 CALM      29.78R                  
ROOSEVELT      FLURRIES  19  16  86 CALM      29.79R                  
VERNAL         CLOUDY    22  13  68 N3        29.76R                  

$$

UTZ013>016-019>022-027-221500-

SOUTHERN UTAH
  
CITY           SKY/WX    TMP DP  RH WIND       PRES   REMARKS
BRYCE CANYON   CLOUDY     7   3  84 NW7       29.66R WCI  -5          
CEDAR CITY     FLURRIES  14  10  84 CALM      29.76R                  
MILFORD        FLURRIES  18  15  88 N14       29.80R WCI   4          
ST GEORGE      MOSUNNY   24  21  88 SE7       29.82R WCI  16          
HANKSVILLE     CLOUDY    23  23 100 SW5       29.77R VSB 1/4 WCI  17  
KANAB          CLOUDY    23  18  80 N7        29.77R WCI  15          
BLANDING         N/A     25  24  96 CALM      29.75R                  

$$

REGIONAL REPORTS     COLORADO/ARIZONA
  
CITY           SKY/WX    TMP DP  RH WIND       PRES   REMARKS
CRAIG, CO      LGT SNOW  18  15  88 W10       29.73R VSB 3/4 WCI   6  
GRAND JUNCTION CLOUDY    30  29  96 CALM      29.71S                  
RIFLE, CO      LGT SNOW  29  28  96 CALM      29.70S FOG              
MONTROSE, CO   LGT SNOW  27  25  92 CALM      29.72S VSB 3/4          
CORTEZ, CO     FLURRIES  28  25  88 NE3       29.66F                  
COLORADO CITY  FOG        9   5  85 SE7       29.77R VSB 1   WCI  -3  
PAGE, AZ       CLOUDY    31  23  72 CALM      29.71R                  
GRAND CANYON   LGT SNOW  20  18  92 CALM      29.64S VSB 3/4          
KINGMAN, AZ    CLOUDY    30  28  92 N14       29.76R WCI  19          
FLAGSTAFF, AZ  LGT SNOW  20  18  92 CALM      29.63R FOG              

$$

REGIONAL REPORTS    NEVADA/IDAHO/WYOMING
  
CITY           SKY/WX    TMP DP  RH WIND       PRES   REMARKS
LAS VEGAS, NV  PTCLDY    38  19  46 NW17G25   29.82R WCI  28          
ELY, NY        PTCLDY     2  -2  83 NW7       29.85R WCI -11          
ELKO, NV       PTCLDY    -5 -12  72 CALM      29.95R                  
POCATELLO, ID    N/A     -2  -7  79 CALM      29.95S                  
BURLEY, ID     CLOUDY    20  17  88 W5        29.95R WCI  13          
EVANSTON, WY   CLOUDY     7   1  76 E9        29.73R WCI  -7          
ROCK SPRINGS,  CLOUDY     5   1  83 E10       29.74S WCI -10          
KEMMERER, WY   LGT SNOW   9   3  78 CALM      29.74R                  

$$
  

Return to Home page


Western Regional Climate Center, wrcc@dri.edu